Regional Weather Roundup
Issued by NWS

Home | Current Version | Previous Version | Graphics & Text | Print | Product List | Glossary On
Versions: 1 2 3 4 5 6 7 8 9 10 11 12 13 14 15 16 17 18 19 20 21 22 23 24 25 26 27 28 29 30 31 32 33 34 35 36 37 38 39 40 41 42 43 44 45 46 47 48 49 50
800
ASUS44 KLIX 010510
RWRLA
LOUISIANA WEATHER ROUNDUP
NATIONAL WEATHER SERVICE NEW ORLEANS LA
1100 PM CST SAT JAN 31 2015

NOTE: "FAIR" INDICATES FEW OR NO CLOUDS BELOW 12,000 FEET WITH NO
      SIGNIFICANT WEATHER AND/OR OBSTRUCTIONS TO VISIBILITY.
      SKY/WX - SKY CONDITION AND SIGNIFICANT WEATHER.
      TMP - AIR TEMPERATURE.    DP   - DEWPOINT TEMPERATURE.
      RH  - RELATIVE HUMIDITY.  PRES - PRESSURE.
      HX  - HEAT INDEX.         WCI  - WIND CHILL INDEX.

*  THESE STATIONS ARE NOT NWS OR FAA STATIONS AND ARE NOT UNDER
   NWS QUALITY CONTROL.

LAZ040-048-061>063-065-066-069-010600-
SOUTHEAST LOUISIANA

CITY           SKY/WX    TMP DP  RH WIND       PRES   REMARKS
N.O. AUDUBON     N/A     59  53  80 MISG        N/A
N.O. INTL ARPT MOCLDY    57  51  80 E7        30.14S
N.O. LAKEFRONT CLOUDY    60  51  72 E14       30.14F
N.O. DOWNTOWN* NOT AVBL
SLIDELL        MOCLDY    53  49  86 E3        30.15F
BATON ROUGE    CLOUDY    54  48  80 E8        30.12F
BOOTHVILLE     MOCLDY    58  53  84 E7        30.16R
BELLE CHASSE   CLOUDY    59  51  75 E10       30.13F
BOGALUSA*        N/A     52  45  77 SE3       30.18S
GALLIANO*      CLOUDY    63  55  77 MISG      30.12F
NEW ROADS*     CLOUDY    55  48  79 E9        30.11F
GONZALES*      CLOUDY    56  52  89 E5        30.12F
HAMMOND*       CLOUDY    52  46  82 CALM      30.16S
HOUMA*         CLOUDY    59  54  85 E9        30.12S
PORT FOURCHON* PTCLDY    64  59  82 SE13      30.14F

$$

LAZ041-044-053-054-010600-
SOUTHWEST LOUISIANA

CITY           SKY/WX    TMP DP  RH WIND       PRES   REMARKS
LAKE CHARLES   MOCLDY    59  53  80 SE14      30.06F
LAFAYETTE      CLOUDY    57  50  77 SE8       30.09F
PATTERSON      CLOUDY    57  52  82 E9        30.10F
SALT POINT       N/A     59  54  83 VRB7      30.08F
NEW IBERIA     CLOUDY    58  51  78 E9        30.10F
CHENAULT AIRPK MOCLDY    58  53  83 E5        30.07S

$$

LAZ027-028-010600-
CENTRAL LOUISIANA

CITY           SKY/WX    TMP DP  RH WIND       PRES   REMARKS
FORT POLK      CLOUDY    56  48  74 SE9       30.05F
ALEXANDRIA INT CLOUDY    56  48  74 SE13      30.07F
ALEXANDRIA     CLOUDY    55  47  74 SE7       30.09F

$$

LAZ001-002-010600-
NORTHWEST LOUISIANA

CITY           SKY/WX    TMP DP  RH WIND       PRES   REMARKS
SHREVEPORT     CLOUDY    56  43  61 SE14G24   30.00F
BARKSDALE AFB  CLOUDY    54  42  62 S13       30.01F
DTN SHREVEPORT CLOUDY    53  41  63 SE13      30.01F

$$

LAZ014-016-010600-
NORTHEAST LOUISIANA

CITY           SKY/WX    TMP DP  RH WIND       PRES   REMARKS
MONROE         CLOUDY    54  38  54 S7        30.10F
TALLULAH       CLOUDY    53  35  50 SE9       30.11F

$$




USA.gov is the U.S. government's official web portal to all federal, state and local government web resources and services.